Date String (YYYY-MM-DD hh:mm:ss) UTC,Instrument flags,Ambient pressure (hPa),Sample flow (lpm),Bypass flow (lpm),Sample temperature (°C),Ambient temperature (°C),ASC tube jacket temperature (°C),LED temperature (°C),Box temperature (°C),Sample RH (%),Span deviation,Mass concentration (μg/m³),Mass concentration (μg/m³),Mass concentration (μg/m³)
DateTimeUTC,F1_M11,P_M11,Q1_M11,Q2_M11,T1_M11,T2_M11,T3_M11,T4_M11,T5_M11,U1_M11,ZSPAN_M11,X0_M11,X2_M11,X1_M11
2022-01-06 21:00:00,,0819.3,5.01,0.00,22.3,21.5,00.0,31.3,24.0,05.6,0002.0,0013.84,0008.30,0007.36
2022-01-06 21:01:00,,0819.3,5.00,0.00,22.2,21.5,00.0,31.2,24.0,05.6,0001.8,0013.84,0008.28,0007.35
2022-01-06 21:02:00,,0819.3,5.00,0.00,22.2,21.5,00.0,31.2,24.0,05.6,0001.7,0013.82,0008.27,0007.36
2022-01-06 21:03:00,,0819.3,5.01,0.00,22.2,21.5,00.0,31.2,23.9,05.6,0002.2,0013.75,0008.24,0007.35
2022-01-06 21:04:00,,0819.2,4.99,0.00,22.2,21.5,00.0,31.2,23.9,05.6,0002.2,0013.63,0008.21,0007.35
2022-01-06 21:05:00,,0819.3,5.01,0.00,22.3,21.9,00.0,31.3,24.0,05.6,0002.1,0013.67,0008.24,0007.36
2022-01-06 21:06:00,,0819.3,4.99,0.00,22.4,22.7,00.0,31.3,24.3,05.6,0002.0,0013.66,0008.24,0007.38
2022-01-06 21:07:00,,0819.1,5.01,0.00,22.5,23.3,00.0,31.4,24.5,05.6,0002.2,0013.62,0008.23,0007.39
2022-01-06 21:08:00,,0819.0,4.99,0.00,22.6,23.1,00.0,31.4,24.4,05.5,0002.2,0012.95,0008.25,0007.39
2022-01-06 21:09:00,,0818.9,5.02,0.00,22.6,22.8,00.0,31.4,24.3,05.6,0001.7,0012.88,0008.24,0007.37
2022-01-06 21:10:00,,0819.0,4.99,0.00,22.5,22.6,00.0,31.4,24.3,05.6,0001.7,0012.88,0008.24,0007.38
2022-01-06 21:11:00,,0819.0,5.00,0.00,22.5,22.4,00.0,31.4,24.3,05.6,0001.6,0012.76,0008.20,0007.38
2022-01-06 21:12:00,,0818.9,5.01,0.00,22.5,22.3,00.0,31.4,24.3,05.6,0001.7,0012.71,0008.21,0007.39
2022-01-06 21:13:00,,0819.0,4.99,0.00,22.5,22.1,00.0,31.4,24.3,05.6,0001.5,0012.82,0008.27,0007.42
2022-01-06 21:14:00,,0819.1,5.00,0.00,22.5,22.1,00.0,31.4,24.3,05.6,0001.1,0012.96,0008.35,0007.46
2022-01-06 21:15:00,,0819.3,4.99,0.00,22.5,22.0,00.0,31.4,24.2,05.6,0001.2,0013.14,0008.43,0007.51
2022-01-06 21:16:00,,0819.0,5.01,0.00,22.5,21.9,00.0,31.4,24.2,05.6,0001.1,0013.25,0008.48,0007.55
2022-01-06 21:17:00,,0819.0,4.99,0.00,22.5,21.9,00.0,31.4,24.2,05.6,0000.9,0013.27,0008.47,0007.55
2022-01-06 21:18:00,,0819.1,5.00,0.00,22.5,21.9,00.0,31.4,24.2,05.6,0000.8,0013.47,0008.45,0007.55
2022-01-06 21:19:00,,0819.2,5.00,0.00,22.4,21.8,00.0,31.4,24.2,05.6,0000.8,0013.91,0008.42,0007.56
2022-01-06 21:20:00,,0819.1,4.99,0.00,22.4,21.8,00.0,31.4,24.2,05.6,0001.2,0013.75,0008.44,0007.60
2022-01-06 21:21:00,,0819.0,5.01,0.00,22.4,21.7,00.0,31.4,24.2,05.6,0001.3,0013.77,0008.47,0007.63
2022-01-06 21:22:00,,0819.1,4.99,0.00,22.4,21.7,00.0,31.4,24.1,05.6,0001.3,0014.08,0008.50,0007.63
2022-01-06 21:23:00,,0819.1,5.00,0.00,22.4,21.7,00.0,31.4,24.1,05.6,0001.1,0014.66,0008.49,0007.63
2022-01-06 21:24:00,,0819.1,5.01,0.00,22.4,21.7,00.0,31.4,24.1,05.6,0001.0,0014.66,0008.49,0007.63
2022-01-06 21:25:00,,0819.3,5.01,0.00,22.4,21.6,00.0,31.4,24.1,05.6,0001.1,0014.57,0008.44,0007.60
2022-01-06 21:26:00,,0819.3,4.99,0.00,22.4,21.6,00.0,31.4,24.1,05.6,0000.8,0014.46,0008.38,0007.58
2022-01-06 21:27:00,,0819.2,5.00,0.00,22.4,21.6,00.0,31.4,24.1,05.6,0001.0,0014.32,0008.34,0007.58
2022-01-06 21:28:00,,0818.9,5.00,0.00,22.4,21.6,00.0,31.4,24.1,05.6,0001.4,0014.25,0008.35,0007.60
2022-01-06 21:29:00,,0818.9,5.00,0.00,22.3,21.6,00.0,31.4,24.1,05.7,0001.6,0014.32,0008.37,0007.63
2022-01-06 21:30:00,,0818.9,5.00,0.00,22.3,21.6,00.0,31.4,24.1,05.7,0001.7,0014.37,0008.37,0007.64
2022-01-06 21:31:00,,0819.0,5.01,0.00,22.3,21.6,00.0,31.4,24.0,05.7,0001.8,0014.34,0008.37,0007.66
2022-01-06 21:32:00,,0818.8,4.98,0.00,22.4,22.1,00.0,31.4,24.1,05.7,0001.6,0014.40,0008.41,0007.68
2022-01-06 21:33:00,,0818.8,5.02,0.00,22.5,22.8,00.0,31.4,24.4,05.6,0001.9,0014.30,0008.48,0007.71
2022-01-06 21:34:00,,0819.0,4.99,0.00,22.6,23.1,00.0,31.5,24.5,05.6,0002.2,0013.93,0008.55,0007.74
2022-01-06 21:35:00,,0818.9,5.00,0.00,22.5,22.6,00.0,31.5,24.3,05.7,0002.3,0013.91,0008.58,0007.78
2022-01-06 21:36:00,,0818.9,5.00,0.00,22.5,22.3,00.0,31.5,24.1,05.7,0002.4,0013.99,0008.64,0007.87
2022-01-06 21:37:00,,0819.0,5.00,0.00,22.4,22.1,00.0,31.4,24.0,05.8,0002.5,0014.10,0008.74,0007.96
2022-01-06 21:38:00,,0819.2,5.01,0.00,22.3,21.9,00.0,31.4,23.9,05.8,0002.2,0014.27,0008.83,0008.03
2022-01-06 21:39:00,,0819.1,4.99,0.00,22.3,21.7,00.0,31.4,23.8,05.9,0002.1,0014.40,0008.90,0008.08
2022-01-06 21:40:00,,0819.0,5.01,0.00,22.2,21.6,00.0,31.4,23.8,05.9,0001.7,0014.36,0009.01,0008.15
2022-01-06 21:41:00,,0819.0,4.99,0.00,22.2,21.6,00.0,31.4,23.7,06.0,0002.1,0013.79,0009.14,0008.23
2022-01-06 21:42:00,,0819.1,5.01,0.00,22.1,21.4,00.0,31.3,23.6,06.0,0002.0,0014.02,0009.24,0008.29
2022-01-06 21:43:00,,0818.9,4.99,0.00,22.1,21.3,00.0,31.3,23.6,06.0,0001.8,0014.02,0009.25,0008.34
2022-01-06 21:44:00,,0818.8,5.01,0.00,22.0,21.3,00.0,31.3,23.6,06.0,0001.5,0013.99,0009.27,0008.40
2022-01-06 21:45:00,,0818.8,5.00,0.00,22.0,21.3,00.0,31.3,23.6,06.0,0001.2,0014.34,0009.30,0008.46
2022-01-06 21:46:00,,0818.9,4.99,0.00,22.0,21.2,00.0,31.2,23.6,06.0,0001.2,0014.64,0009.31,0008.48
2022-01-06 21:47:00,,0818.9,5.01,0.00,21.9,21.1,00.0,31.2,23.5,06.0,0000.9,0014.71,0009.35,0008.48
2022-01-06 21:48:00,,0818.7,5.00,0.00,21.9,21.1,00.0,31.2,23.4,06.1,0001.1,0014.75,0009.36,0008.46
2022-01-06 21:49:00,,0818.8,4.99,0.00,22.0,21.8,00.0,31.2,23.7,06.1,0001.5,0014.80,0009.38,0008.44
2022-01-06 21:50:00,,0818.9,5.01,0.00,22.1,22.7,00.0,31.2,24.0,06.1,0001.8,0014.80,0009.37,0008.43
2022-01-06 21:51:00,,0819.1,5.00,0.00,22.3,22.8,00.0,31.3,24.2,06.1,0001.9,0014.71,0009.30,0008.39
2022-01-06 21:52:00,,0819.1,5.00,0.00,22.3,22.7,00.0,31.3,24.2,06.1,0001.5,0014.61,0009.25,0008.36
2022-01-06 21:53:00,,0819.0,4.99,0.00,22.3,22.5,00.0,31.3,24.2,06.0,0001.5,0014.52,0009.21,0008.33
2022-01-06 21:54:00,,0818.9,5.00,0.00,22.3,22.3,00.0,31.3,24.1,06.0,0001.5,0014.63,0009.25,0008.32
2022-01-06 21:55:00,,0818.9,4.99,0.00,22.3,22.1,00.0,31.3,24.0,06.0,0001.5,0014.65,0009.23,0008.31
2022-01-06 21:56:00,,0818.9,5.00,0.00,22.3,22.0,00.0,31.3,24.1,06.1,0001.3,0014.82,0009.21,0008.29
2022-01-06 21:57:00,,0818.8,5.01,0.00,22.3,22.0,00.0,31.3,24.1,06.1,0001.7,0014.71,0009.23,0008.30
2022-01-06 21:58:00,,0818.9,4.99,0.00,22.3,21.9,00.0,31.3,24.0,06.1,0001.9,0014.76,0009.22,0008.30
2022-01-06 21:59:00,,0818.9,5.02,0.00,22.3,21.8,00.0,31.3,24.0,06.1,0001.7,0014.70,0009.21,0008.29
